San Juan, PR

2:20 AM AST on January 20, 2018 (GMT -0400)
Luis Munoz Marin International

Weather History for TJSJ - July, 2014

Change the Weather History Date:

Sunday, July 6, 2014

  Actual Average Record
Temperature  
Mean Temperature 85 °F 83 °F  
Max Temperature 92 °F 89 °F 93 °F (1988)
Min Temperature 78 °F 78 °F 70 °F (1919)
Degree Days  
Heating Degree Days 0 0  
Month to date heating degree days 0 0  
Since 1 June heating degree days 0 0  
Since 1 July heating degree days 0 0  
Cooling Degree Days 20 18  
Month to date cooling degree days 126 108  
Year to date cooling degree days 3142 2822  
Since 1 June cooling degree days 736 657  
Growing Degree Days 34 (Base 50)    
Moisture  
Dew Point 75 °F    
Average Humidity 72    
Maximum Humidity 88    
Minimum Humidity 56    
Precipitation  
Precipitation 0.37 in 0.16 in 2.02 in (1924)
Month to date precipitation 0.73 0.92  
Year to date precipitation 19.91 24.01  
Sea Level Pressure  
Sea Level Pressure 30.05 in    
Wind  
Wind Speed 9 mph (East)    
Max Wind Speed 24 mph    
Max Gust Speed 30 mph    
Visibility 8 miles    
Events Rain , Thunderstorm    
T = Trace of Precipitation, MM = Missing Value Source: NWS Daily Summary

Daily Weather History Graph

Daily Weather History Graph

Search for Another Location

Airport or City:

Trip Planner

Search our weather history database for the weather conditions in past years. The results will help you decide how hot, cold, wet, or windy it might be!

Date:

Astronomy

Jul. 06, 2014 Rise Set
Actual Time 5:52 AM AST 7:04 PM AST
Civil Twilight 5:28 AM AST 7:28 PM AST
Nautical Twilight 5:00 AM AST 7:57 PM AST
Astronomical Twilight 4:30 AM AST 8:26 PM AST
Moon 1:28 PM AST (7/6) 12:36 AM AST (7/6)
Length of Visible Light 13h 59m
Length of Day
13h 11m
Waxing Gibbous, 62% of the Moon is Illuminated
Jul 6
Waxing Gibbous
Jul 12
Full
Jul 18
Last Quarter
Jul 26
New
Aug 3
First Quarter

Hourly Weather History & Observations

Time (AST) Temp. Heat Index Dew Point Humidity Pressure Visibility Wind Dir Wind Speed Gust Speed Precip Events Conditions
12:25 AM 78.8 °F - 73.4 °F 83% 30.07 in 5.0 mi ENE 15.0 mph 24.2 mph 0.15 in Rain , Thunderstorm Heavy Thunderstorms and Rain
12:33 AM 78.8 °F - 75.2 °F 89% 30.07 in 5.0 mi ENE 11.5 mph - 0.19 in Rain Light Rain
12:56 AM 79.0 °F - 73.9 °F 84% 30.06 in 10.0 mi ENE 9.2 mph - 0.19 in   Mostly Cloudy
1:56 AM 79.0 °F - 73.9 °F 84% 30.04 in 10.0 mi East 4.6 mph - N/A   Scattered Clouds
2:56 AM 80.1 °F 85.1 °F 75.0 °F 85% 30.03 in 10.0 mi East 3.5 mph - N/A   Mostly Cloudy
3:56 AM 80.1 °F 84.5 °F 73.9 °F 81% 30.03 in 9.0 mi Calm Calm - 0.01 in Rain Light Rain
4:56 AM 80.1 °F 85.1 °F 75.0 °F 85% 30.03 in 8.0 mi ESE 4.6 mph - 0.09 in Rain Light Rain
5:56 AM 80.1 °F 85.1 °F 75.0 °F 85% 30.04 in 10.0 mi Calm Calm - 0.03 in   Scattered Clouds
6:56 AM 80.1 °F 85.4 °F 75.9 °F 87% 30.05 in 10.0 mi Calm Calm - 0.01 in   Mostly Cloudy
7:56 AM 82.0 °F 90.2 °F 77.0 °F 85% 30.07 in 10.0 mi East 5.8 mph - 0.03 in   Mostly Cloudy
8:56 AM 82.9 °F 92.8 °F 78.1 °F 85% 30.08 in 9.0 mi ESE 4.6 mph - N/A   Mostly Cloudy
9:56 AM 87.1 °F 98.8 °F 77.0 °F 72% 30.07 in 9.0 mi East 13.8 mph - N/A   Mostly Cloudy
10:56 AM 87.1 °F 96.3 °F 75.0 °F 67% 30.07 in 9.0 mi SE 8.1 mph - N/A   Scattered Clouds
11:56 AM 89.1 °F 98.0 °F 73.9 °F 61% 30.06 in 9.0 mi East 12.7 mph 21.9 mph 0.01 in   Scattered Clouds
12:56 PM 90.0 °F 99.0 °F 73.9 °F 59% 30.05 in 8.0 mi East 18.4 mph 24.2 mph N/A   Scattered Clouds
1:56 PM 91.0 °F 100.4 °F 73.9 °F 57% 30.04 in 8.0 mi East 17.3 mph 28.8 mph N/A   Scattered Clouds
2:56 PM 91.9 °F 101.3 °F 73.9 °F 55% 30.02 in 7.0 mi East 16.1 mph 27.6 mph N/A   Scattered Clouds
3:56 PM 91.0 °F 99.3 °F 73.0 °F 55% 30.01 in 6.0 mi East 16.1 mph 24.2 mph N/A   Haze
4:56 PM 88.0 °F 96.5 °F 73.9 °F 63% 30.01 in 6.0 mi East 16.1 mph 25.3 mph N/A   Haze
5:56 PM 88.0 °F 94.7 °F 72.0 °F 59% 30.02 in 6.0 mi East 16.1 mph 21.9 mph N/A   Haze
6:56 PM 84.9 °F 91.4 °F 73.0 °F 67% 30.04 in 6.0 mi ENE 13.8 mph - N/A   Haze
7:56 PM 84.0 °F 91.2 °F 73.9 °F 72% 30.06 in 9.0 mi East 8.1 mph - N/A   Partly Cloudy
8:56 PM 84.0 °F 91.2 °F 73.9 °F 72% 30.06 in 10.0 mi East 8.1 mph - N/A   Partly Cloudy
9:56 PM 82.9 °F 90.2 °F 75.0 °F 77% 30.07 in 10.0 mi East 8.1 mph - N/A   Partly Cloudy
10:56 PM 82.9 °F 90.2 °F 75.0 °F 77% 30.08 in 10.0 mi East 8.1 mph - N/A   Partly Cloudy
11:56 PM 82.9 °F 90.8 °F 75.9 °F 79% 30.09 in 10.0 mi East 9.2 mph - N/A   Partly Cloudy